Location: Mascot Post Office (historical)
(40.2645°N, 99.5462°W)
Time: 02:42:28
(UTC+00:00)

Cosmos 1408 Rocket - Pass Details

Date: 14 July 2020
Orbit: 601 x 631 km, 82.6° (Epoch: 14 August)

Event Time Altitude Azimuth Distance (km) Brightness Sun altitude
Exits shadow 04:59:13 44° 72° (ENE) 868 4.2 -23.5°
Drops below altitude 10° 05:02:58 10° 20° (NNE) 2,005 6.7 -23.8°
Sets 05:05:16 0° 14° (NNE) 2,921 7.8 -24.0°
